Вернуться в каталог

STARLINK-34441

АктивенСвязьVLEO
NORAD 64430·PAYLOAD·🇺🇸 United States

Запущен Jun 17, 2025 с Vandenberg Space Force Base

Loading…

Ближайшие Пролёты (ближайшие 24 часа)

TLE

СвежийSource: CelesTrak SupGP

Эпоха: Sep 15, 2026, 02:24 UTC

1 64430C 25129U   26258.10048611  .00054944  00000+0  19115-2 0  2582
2 64430  69.9988 315.3925 0003469 266.8653 201.5322 15.29547588    14

Отслеживайте STARLINK-34441 в реальном времени с AllMySat

Download on the App Store